sat.trackr.live / text

‹ back to catalog

XIWANG-5 02

NORAD 67069 · 2025-296A

PAYLOAD ACTIVE UNKNOWN

§ Identity

Operator
Country
PRC
Launch date
2025-12-13
Launch site
JSC
Launch vehicle
Mass (kg)
RCS (m²)

External: N2YO · Heavens-Above · Gunter

§ Orbital elements

Epoch: 2026-05-25T00:33:48.646080Z

Period
94.98 min
Inclination
41.3513°
Eccentricity
0.0004039
Mean motion
15.16082859 rev/d
Perigee alt
514.9 km
Apogee alt
520.5 km
Semi-major
6,895.8 km
B*
4.4906e-4
RAAN
253.2925°
Arg perigee
319.3094°
Mean anomaly
40.7425°
Rev number
2,472

§ Raw data

XIWANG-5 021 67069U 25296A   26145.02347970  .00008623  00000+0  44906-3 0  99962 67069  41.3513 253.2925 0004039 319.3094  40.7425 15.16082859 24722

JSON: /api/v1/satellites/67069 · /tle

For live sub-satellite position, see the globe view (requires WebGL).

§ Visibility from observer

Set your observer location to see the next 7 days of passes ≥ 10°. The values pass through the URL so the page stays shareable.

No JS? Fill the form by hand. The geolocation button needs JavaScript.